FW0884 Weather Reports


time (UTC)temp
C
wind
direction
speed
KPH
gust
KPH
rain 1hr
cm
rain 24hr
cm
rain mn
cm
humidity
%
barometer
mb
20260506192530 15 189 8.0 19.3 0.00 0.13 0.13 87 1006.5
20260506192029 15 145 8.0 19.3 0.00 0.13 0.13 87 1006.3
20260506191529 15 190 9.7 19.3 0.00 0.13 0.13 87 1006.5
20260506191028 15 168 8.0 17.7 0.00 0.13 0.13 87 1006.5
20260506190527 15 247 8.0 16.1 0.03 0.13 0.13 87 1006.6
20260506190028 15 202 9.7 16.1 0.03 0.13 0.13 86 1006.6
20260506185526 15 226 6.4 14.5 0.03 0.13 0.13 87 1006.9
20260506185024 15 235 8.0 14.5 0.05 0.13 0.13 87 1007.0
20260506184530 15 229 8.0 22.5 0.05 0.13 0.13 87 1007.3
20260506184024 15 163 8.0 22.5 0.05 0.13 0.13 86 1007.3
20260506183524 15 190 8.0 14.5 0.08 0.13 0.13 86 1007.4
20260506183024 15 244 9.7 16.1 0.10 0.13 0.13 86 1007.4
20260506182523 14 188 9.7 19.3 0.10 0.13 0.13 86 1007.3
20260506182023 14 167 8.0 19.3 0.10 0.13 0.13 86 1007.4
20260506181535 14 213 8.0 19.3 0.13 0.13 0.13 86 1007.4
20260506181022 14 212 8.0 19.3 0.13 0.13 0.13 86 1007.6
20260506180521 14 202 6.4 14.5 0.10 0.10 0.10 85 1007.6
20260506180021 14 199 6.4 14.5 0.10 0.10 0.10 85 1007.6
20260506175524 15 200 8.0 16.1 0.10 0.10 0.10 85 1007.8
20260506175018 15 213 4.8 16.1 0.08 0.08 0.08 85 1007.9
20260506174519 15 177 8.0 16.1 0.08 0.08 0.08 84 1008.0
20260506174021 15 163 8.0 16.1 0.08 0.08 0.08 84 1008.0
20260506173520 15 228 9.7 17.7 0.05 0.05 0.05 84 1008.2
20260506173019 15 220 9.7 19.3 0.03 0.03 0.03 83 1008.4
20260506172516 15 201 6.4 19.3 0.03 0.03 0.03 83 1008.3
20260506172015 15 203 8.0 16.1 0.03 0.03 0.03 82 1008.5
20260506171516 15 202 8.0 17.7 0.00 0.00 0.00 82 1008.6
20260506171019 15 235 8.0 19.3 0.00 0.00 0.00 81 1008.7
20260506170514 15 180 11.3 19.3 0.00 0.00 0.00 81 1008.7
20260506170014 16 202 9.7 19.3 0.00 0.00 0.00 80 1008.6
20260506165517 16 223 9.7 20.9 0.00 0.00 0.00 80 1008.6
20260506165014 16 179 12.9 20.9 0.00 0.00 0.00 80 1008.7
20260506164514 16 228 11.3 20.9 0.00 0.00 0.00 79 1008.7
20260506164016 16 240 11.3 24.1 0.00 0.00 0.00 79 1008.8
20260506163513 16 182 9.7 19.3 0.00 0.00 0.00 78 1008.9
20260506163016 16 204 8.0 19.3 0.00 0.00 0.00 78 1008.8
20260506162513 16 209 6.4 16.1 0.00 0.00 0.00 78 1008.8
20260506162015 16 207 9.7 17.7 0.00 0.00 0.00 78 1008.9
20260506161513 16 182 6.4 24.1 0.00 0.00 0.00 78 1008.9
20260506161016 16 217 11.3 20.9 0.00 0.00 0.00 78 1008.9
20260506160515 16 156 9.7 17.7 0.00 0.00 0.00 78 1008.9
20260506160013 16 232 9.7 17.7 0.00 0.00 0.00 78 1008.9
20260506155511 16 152 8.0 20.9 0.00 0.00 0.00 78 1009.0
20260506155011 16 148 11.3 24.1 0.00 0.00 0.00 78 1009.0
20260506154511 16 250 12.9 24.1 0.00 0.00 0.00 77 1009.1
20260506154010 17 198 14.5 24.1 0.00 0.00 0.00 78 1009.2
20260506153510 16 227 8.0 16.1 0.00 0.00 0.00 78 1009.2
20260506153012 16 205 9.7 22.5 0.00 0.00 0.00 78 1009.4
20260506152509 16 153 9.7 22.5 0.00 0.00 0.00 78 1009.4
20260506152009 16 227 8.0 19.3 0.00 0.00 0.00 79 1009.3
20260506151509 16 226 9.7 19.3 0.00 0.00 0.00 78 1009.3
20260506151009 16 220 11.3 24.1 0.00 0.00 0.00 78 1009.1
20260506150509 16 145 9.7 27.4 0.00 0.00 0.00 78 1009.1
20260506150014 16 183 9.7 16.1 0.00 0.00 0.00 78 1009.0
20260506145508 16 202 9.7 16.1 0.00 0.00 0.00 78 1009.0
20260506145008 16 228 9.7 25.7 0.00 0.00 0.00 78 1009.1
20260506144507 16 209 11.3 25.7 0.00 0.00 0.00 78 1009.3
20260506144008 16 232 8.0 25.7 0.00 0.00 0.00 78 1009.3
20260506143508 16 238 9.7 25.7 0.00 0.00 0.00 78 1009.3
20260506143014 16 162 11.3 17.7 0.00 0.00 0.00 77 1009.3
20260506142507 17 173 8.0 35.4 0.00 0.00 0.00 78 1009.3
20260506142006 16 196 11.3 35.4 0.00 0.00 0.00 78 1009.3
20260506141506 16 167 9.7 22.5 0.00 0.00 0.00 78 1009.4
20260506141008 16 194 11.3 22.5 0.00 0.00 0.00 78 1009.3
20260506140505 16 179 9.7 24.1 0.00 0.00 0.00 78 1009.4
20260506140011 16 256 11.3 20.9 0.00 0.00 0.00 79 1009.5
20260506135507 16 153 8.0 25.7 0.00 0.00 0.00 79 1009.6
20260506135005 16 221 9.7 25.7 0.00 0.00 0.00 79 1009.6
20260506134504 16 175 11.3 24.1 0.00 0.00 0.00 79 1009.6
20260506134004 16 238 11.3 24.1 0.00 0.00 0.00 79 1009.6
20260506133508 16 192 12.9 25.7 0.00 0.00 0.00 79 1009.5
20260506133005 16 189 11.3 25.7 0.00 0.00 0.00 79 1009.3
20260506132506 16 178 12.9 24.1 0.00 0.00 0.00 79 1009.3
20260506132005 16 221 12.9 24.1 0.00 0.00 0.00 79 1009.4
20260506131508 16 196 11.3 27.4 0.00 0.00 0.00 78 1009.3
20260506131007 16 237 11.3 27.4 0.00 0.00 0.00 78 1009.4
20260506130503 16 237 12.9 27.4 0.00 0.00 0.00 78 1009.3
20260506130004 16 202 9.7 27.4 0.00 0.00 0.00 78 1009.4
20260506125502 16 204 9.7 17.7 0.00 0.00 0.00 78 1009.4
20260506125004 16 196 9.7 22.5 0.00 0.00 0.00 78 1009.4
20260506124503 16 196 11.3 22.5 0.00 0.00 0.00 78 1009.5
20260506124002 16 254 9.7 19.3 0.00 0.00 0.00 79 1009.7
20260506123502 16 207 9.7 22.5 0.00 0.00 0.00 79 1009.6
20260506123100 16 213 11.3 19.3 0.00 0.00 0.00 79 1009.6
20260506122602 16 188 8.0 16.1 0.00 0.00 0.00 80 1009.8
20260506122058 16 234 9.7 16.1 0.00 0.00 0.00 80 1009.7
20260506121557 16 175 8.0 16.1 0.00 0.00 0.00 80 1009.7
20260506121057 16 214 8.0 16.1 0.00 0.00 0.00 81 1009.6
20260506120557 15 221 8.0 16.1 0.00 0.00 0.00 81 1009.6
20260506120055 15 198 8.0 19.3 0.00 0.00 0.00 81 1009.6
20260506115559 15 202 4.8 16.1 0.00 0.00 0.00 82 1009.4
20260506115055 15 241 9.7 16.1 0.00 0.00 0.00 82 1009.6
20260506114604 15 168 9.7 16.1 0.00 0.00 0.00 82 1009.4
20260506114054 15 204 11.3 22.5 0.00 0.00 0.00 82 1009.4
20260506113553 15 188 8.0 22.5 0.00 0.00 0.00 83 1009.5
20260506113054 15 190 11.3 17.7 0.00 0.00 0.00 83 1009.6
20260506112553 15 194 8.0 19.3 0.00 0.00 0.00 83 1009.6
20260506112057 14 238 11.3 16.1 0.00 0.00 0.00 84 1009.4
20260506111553 14 187 8.0 17.7 0.00 0.00 0.00 84 1009.6
20260506111052 14 207 6.4 17.7 0.00 0.00 0.00 84 1009.7
20260506110552 14 178 8.0 16.1 0.00 0.00 0.00 84 1009.7
20260506110051 14 189 8.0 16.1 0.00 0.00 0.00 84 1009.5
20260506105551 14 244 9.7 16.1 0.00 0.00 0.00 84 1009.6
20260506105052 14 186 8.0 14.5 0.00 0.00 0.00 84 1009.6
20260506104611 13 167 6.4 16.1 0.00 0.00 0.00 85 1009.5
20260506104050 13 221 6.4 16.1 0.00 0.00 0.00 85 1009.5
20260506103650 13 204 8.0 22.5 0.00 0.00 0.00 85 1009.5
20260506103049 13 196 6.4 16.1 0.00 0.00 0.00 85 1009.6
20260506102550 13 194 8.0 17.7 0.00 0.00 0.00 84 1009.6
20260506102049 13 159 8.0 19.3 0.00 0.00 0.00 84 1009.6
20260506101550 13 198 4.8 17.7 0.00 0.00 0.00 84 1009.7
20260506101148 13 242 9.7 17.7 0.00 0.00 0.00 84 1009.6
20260506100546 13 169 8.0 19.3 0.00 0.00 0.00 84 1009.5
20260506100047 13 229 8.0 19.3 0.00 0.00 0.00 84 1009.6
20260506095549 13 217 6.4 12.9 0.00 0.00 0.00 84 1009.5
20260506095046 13 188 6.4 16.1 0.00 0.00 0.00 84 1009.5
20260506094545 13 172 6.4 16.1 0.00 0.00 0.00 84 1009.4
20260506094044 13 188 8.0 16.1 0.00 0.00 0.00 84 1009.5
20260506093544 13 213 6.4 14.5 0.00 0.00 0.00 84 1009.5
20260506093043 13 219 4.8 12.9 0.00 0.00 0.00 84 1009.4
20260506092543 13 213 6.4 12.9 0.00 0.00 0.00 84 1009.6
20260506092043 13 96 6.4 16.1 0.00 0.00 0.00 83 1009.6
20260506091543 13 211 8.0 16.1 0.00 0.00 0.00 83 1009.7
20260506091044 13 200 8.0 14.5 0.00 0.00 0.00 83 1009.6
20260506090540 13 172 6.4 14.5 0.00 0.00 0.00 83 1009.7
20260506090045 13 205 6.4 14.5 0.00 0.00 0.00 83 1009.7
20260506085539 13 231 8.0 14.5 0.00 0.00 0.00 83 1009.8
20260506085041 13 166 8.0 12.9 0.00 0.00 0.00 83 1009.9
20260506084539 14 213 4.8 14.5 0.00 0.00 0.00 83 1009.8
20260506084038 14 193 6.4 17.7 0.00 0.00 0.00 83 1009.9
20260506083539 14 249 8.0 16.1 0.00 0.00 0.00 83 1009.9
20260506083042 14 203 8.0 16.1 0.00 0.00 0.00 82 1009.9
20260506082537 14 152 8.0 16.1 0.00 0.00 0.00 82 1009.9
20260506082037 14 215 8.0 16.1 0.00 0.00 0.00 82 1010.0
20260506081537 14 211 6.4 16.1 0.00 0.00 0.00 82 1010.0
20260506081036 14 229 6.4 20.9 0.00 0.00 0.00 82 1009.9
20260506080538 14 213 9.7 20.9 0.00 0.00 0.00 82 1009.9
20260506073031 14 213 9.7 19.3 0.00 0.00 0.00 81 1010.2
20260506072531 14 218 12.9 19.3 0.00 0.00 0.00 81 1010.2
20260506072031 14 190 11.3 20.9 0.00 0.00 0.00 81 1010.3
20260506071532 14 224 9.7 19.3 0.00 0.00 0.00 81 1010.3
20260506071029 14 235 11.3 17.7 0.00 0.00 0.00 81 1010.3
20260506070528 14 186 8.0 19.3 0.00 0.00 0.00 81 1010.3
20260506062023 15 203 11.3 22.5 0.00 0.00 0.00 80 1010.1
20260506061522 15 210 12.9 22.5 0.00 0.00 0.00 80 1010.3
20260506061023 15 254 11.3 22.5 0.00 0.00 0.00 80 1010.2
20260506060518 15 211 11.3 22.5 0.00 0.00 0.00 80 1010.2
20260506051015 15 228 11.3 22.5 0.00 0.00 0.00 78 1010.5
20260506050513 15 203 14.5 27.4 0.00 0.00 0.00 78 1010.6
20260506045012 15 225 16.1 29.0 0.00 0.00 0.00 78 1010.4
20260506044511 15 218 14.5 25.7 0.00 0.00 0.00 78 1010.6
20260506044011 15 195 11.3 27.4 0.00 0.00 0.00 78 1010.6
20260506043513 15 205 12.9 27.4 0.00 0.00 0.00 78 1010.7
20260506043014 15 205 16.1 27.4 0.00 0.00 0.00 78 1010.6
20260506042513 15 219 14.5 24.1 0.00 0.00 0.00 78 1010.7
20260506042008 15 206 14.5 22.5 0.00 0.00 0.00 78 1010.7
20260506041508 15 155 11.3 22.5 0.00 0.00 0.00 78 1010.8
20260506041006 15 203 12.9 24.1 0.00 0.00 0.00 77 1010.8
20260506040505 15 196 14.5 25.7 0.00 0.00 0.00 77 1010.8
20260506040005 15 172 12.9 20.9 0.00 0.00 0.00 77 1010.8
20260506035504 15 217 12.9 25.7 0.00 0.00 0.00 77 1010.6
20260506035004 15 182 11.3 27.4 0.00 0.00 0.00 77 1010.8
20260506034504 15 217 12.9 27.4 0.00 0.00 0.00 77 1010.7
20260506034004 15 207 12.9 25.7 0.00 0.00 0.00 77 1010.6
20260506033503 15 194 9.7 25.7 0.00 0.00 0.00 77 1010.7
20260506033004 15 149 12.9 24.1 0.00 0.00 0.00 77 1010.5
20260506032503 15 188 14.5 24.1 0.00 0.00 0.00 77 1010.6
20260506032003 15 196 11.3 24.1 0.00 0.00 0.00 77 1010.6
20260506031503 15 168 12.9 24.1 0.00 0.00 0.00 77 1010.6
20260506031003 15 218 11.3 24.1 0.00 0.00 0.00 77 1010.7
20260506030503 16 199 12.9 27.4 0.00 0.00 0.00 77 1010.6
20260506030002 16 247 12.9 27.4 0.00 0.00 0.00 77 1010.7
20260506025501 16 142 11.3 19.3 0.00 0.00 0.00 77 1010.8
20260506025002 16 252 11.3 29.0 0.00 0.00 0.00 77 1010.7
20260506024501 16 242 14.5 29.0 0.00 0.00 0.00 76 1010.7
20260506024001 16 180 12.9 25.7 0.00 0.00 0.00 76 1010.8
20260506023502 16 242 9.7 25.7 0.00 0.00 0.00 76 1010.8
20260506023000 16 192 12.9 22.5 0.00 0.00 0.00 76 1010.8
20260506022502 16 213 12.9 19.3 0.00 0.00 0.00 75 1010.7
20260506022100 16 178 11.3 17.7 0.00 0.00 0.00 75 1010.7
20260506021605 16 180 11.3 19.3 0.00 0.00 0.00 74 1010.7
20260506021100 16 189 11.3 20.9 0.00 0.00 0.00 74 1010.6
20260506020601 16 211 9.7 20.9 0.00 0.00 0.00 73 1010.7
20260506020058 16 228 9.7 20.9 0.00 0.00 0.00 73 1010.6
20260506015600 16 190 11.3 20.9 0.00 0.00 0.00 72 1010.5
20260506015059 16 215 11.3 20.9 0.00 0.00 0.00 72 1010.6
20260506014559 16 202 12.9 22.5 0.00 0.00 0.00 71 1010.5
20260506014058 17 225 12.9 25.7 0.00 0.00 0.00 71 1010.4
20260506013557 17 240 16.1 25.7 0.00 0.00 0.00 71 1010.3
20260506013058 17 217 11.3 30.6 0.00 0.00 0.00 70 1010.2
20260506012558 17 211 12.9 30.6 0.00 0.00 0.00 70 1010.2
20260506012100 17 184 9.7 29.0 0.00 0.00 0.00 71 1010.1
20260506011557 17 217 11.3 29.0 0.00 0.00 0.00 71 1010.0
20260506011057 16 209 16.1 25.7 0.00 0.00 0.00 71 1009.9
20260506010556 16 246 16.1 24.1 0.00 0.00 0.00 72 1010.0
20260506010058 16 192 14.5 32.2 0.00 0.00 0.00 72 1009.9
20260506005556 16 136 17.7 32.2 0.00 0.00 0.00 72 1009.8
20260506005056 16 231 14.5 27.4 0.00 0.00 0.00 71 1009.7
20260506004556 16 217 11.3 25.7 0.00 0.00 0.00 71 1009.8
20260506004056 16 192 14.5 24.1 0.00 0.00 0.00 71 1009.8
20260506003559 16 206 14.5 24.1 0.00 0.00 0.00 71 1009.8
20260506003102 16 188 12.9 29.0 0.00 0.00 0.00 71 1009.7
20260506002555 16 179 12.9 29.0 0.00 0.00 0.00 71 1009.6
20260506002055 16 177 16.1 33.8 0.00 0.00 0.00 71 1009.5
20260506001606 17 226 16.1 33.8 0.00 0.00 0.00 71 1009.5
20260506001056 17 234 11.3 24.1 0.00 0.00 0.00 70 1009.3
20260506000555 17 179 16.1 24.1 0.00 0.00 0.00 70 1009.1
20260506000055 17 188 12.9 24.1 0.00 0.00 0.00 70 1009.3
20260505235554 17 230 14.5 30.6 0.00 0.00 0.00 69 1009.0
20260505235054 17 244 11.3 30.6 0.00 0.00 0.00 69 1008.9
20260505234610 17 231 14.5 27.4 0.00 0.00 0.00 69 1008.9
20260505234055 17 227 8.0 25.7 0.00 0.00 0.00 69 1009.0
20260505233556 17 194 11.3 25.7 0.00 0.00 0.00 69 1009.0
20260505233054 17 231 14.5 27.4 0.00 0.00 0.00 69 1009.0
20260505232554 17 132 12.9 27.4 0.00 0.00 0.00 69 1009.0
20260505232056 17 200 8.0 20.9 0.00 0.00 0.00 69 1008.8
20260505231554 17 221 11.3 20.9 0.00 0.00 0.00 69 1008.8
20260505231053 17 270 9.7 27.4 0.00 0.00 0.00 68 1008.7
20260505230552 17 248 12.9 27.4 0.00 0.00 0.00 68 1008.8
20260505230052 17 196 14.5 25.7 0.00 0.00 0.00 68 1008.8
20260505225556 17 223 9.7 32.2 0.00 0.00 0.00 68 1008.8
20260505225153 17 209 8.0 32.2 0.00 0.00 0.00 67 1008.8
20260505224552 18 194 8.0 20.9 0.00 0.00 0.00 67 1008.7
20260505224053 18 203 9.7 25.7 0.00 0.00 0.00 67 1008.7
20260505223554 18 211 11.3 25.7 0.00 0.00 0.00 66 1008.6
20260505223105 18 207 9.7 17.7 0.00 0.00 0.00 66 1008.6
20260505222551 18 142 11.3 20.9 0.00 0.00 0.00 66 1008.6
20260505222051 18 223 11.3 20.9 0.00 0.00 0.00 66 1008.5
20260505221552 18 227 11.3 24.1 0.00 0.00 0.00 66 1008.5
20260505221053 18 360 9.7 24.1 0.00 0.00 0.00 66 1008.5
20260505220550 18 254 11.3 30.6 0.00 0.00 0.00 66 1008.5
20260505220051 18 247 9.7 24.1 0.00 0.00 0.00 65 1008.5
20260505215553 18 174 11.3 20.9 0.00 0.00 0.00 65 1008.4
20260505215050 18 236 12.9 24.1 0.00 0.00 0.00 65 1008.4
20260505214557 18 225 14.5 24.1 0.00 0.00 0.00 64 1008.4
20260505214051 18 190 12.9 24.1 0.00 0.00 0.00 65 1008.3
20260505213550 18 196 11.3 19.3 0.00 0.00 0.00 64 1008.0
20260505213053 19 204 11.3 22.5 0.00 0.00 0.00 64 1008.2
20260505212549 19 221 11.3 29.0 0.00 0.00 0.00 63 1008.2
20260505212049 19 190 14.5 29.0 0.00 0.00 0.00 63 1008.1
20260505211601 19 193 9.7 22.5 0.00 0.00 0.00 64 1008.1
20260505211050 19 213 9.7 22.5 0.00 0.00 0.00 64 1007.9
20260505210548 19 215 12.9 20.9 0.00 0.00 0.00 64 1008.0
20260505210048 19 215 14.5 24.1 0.00 0.00 0.00 63 1007.9
20260505205548 19 181 12.9 24.1 0.00 0.00 0.00 64 1008.0
20260505205049 19 182 14.5 24.1 0.00 0.00 0.00 63 1008.1
20260505204548 19 213 14.5 24.1 0.00 0.00 0.00 64 1008.1
20260505204047 20 196 17.7 24.1 0.00 0.00 0.00 64 1008.1
20260505203547 20 161 12.9 27.4 0.00 0.00 0.00 64 1008.0
20260505203105 20 196 8.0 22.5 0.00 0.00 0.00 63 1008.1
20260505202546 20 192 9.7 17.7 0.00 0.00 0.00 63 1008.1
20260505202046 20 198 9.7 20.9 0.00 0.00 0.00 63 1008.2
20260505201545 20 213 11.3 22.5 0.00 0.00 0.00 62 1008.3
20260505201045 20 200 12.9 22.5 0.00 0.00 0.00 61 1008.3
20260505200544 21 185 11.3 20.9 0.00 0.00 0.00 61 1008.4
20260505200044 21 150 8.0 17.7 0.00 0.00 0.00 62 1008.4
20260505195543 21 219 8.0 14.5 0.00 0.00 0.00 63 1008.4
20260505195043 21 206 8.0 14.5 0.00 0.00 0.00 63 1008.3
20260505194544 20 198 8.0 16.1 0.00 0.00 0.00 64 1008.4
20260505194041 20 173 8.0 20.9 0.00 0.00 0.00 63 1008.5
20260505193541 20 178 11.3 20.9 0.00 0.00 0.00 62 1008.5
20260505193040 20 234 12.9 24.1 0.00 0.00 0.00 63 1008.6